Regional Weather Roundup
Issued by NWS

Home | Current Version | Previous Version | Text Only | Print | Product List | Glossary On
Versions: 1 2 3 4 5 6 7 8 9 10 11 12 13 14 15 16 17 18 19 20 21 22 23 24 25 26 27 28 29 30 31 32 33 34 35 36 37 38 39 40 41 42 43 44 45 46 47 48 49 50
000
ASHW40 PHFO 290730
RWRHI

WEATHER ROUNDUP FOR HAWAII
NATIONAL WEATHER SERVICE HONOLULU HI
900 PM HST SUN DEC 28 2014

THIS IS AN AUTOMATED REPORT THAT HAS NOT BEEN QUALITY CONTROLLED.

NOTE..."FAIR" INDICATES FEW OR NO CLOUDS BELOW 12,000 FEET WITH NO
SIGNIFICANT WEATHER AND/OR OBSTRUCTIONS TO VISIBILITY.

* - THESE SITES REPORT LIMITED FIELDS

HIZ001>004-290800-
KAUAI-NIIHAU-

CITY           SKY/WX    TMP DP  RH WIND       PRES   REMARKS
LIHUE APT      MOCLDY    64  56  75 NW6       29.98R
PORT ALLEN*      N/A     66 N/A N/A NE7         N/A
POIPU*           N/A     63 N/A N/A N3          N/A
PRINCEVILLE*     N/A     61 N/A N/A MISG        N/A
KOKOLE POINT*  NOT AVBL
MOLOAA DAIRY*  NOT AVBL
WAIMEA HTS*    NOT AVBL
PUU OPAE*      NOT AVBL
PUU LUA*       NOT AVBL
MAKAHA RIDGE*  NOT AVBL
$$

HIZ005>011-290800-
OAHU-

CITY           SKY/WX    TMP DP  RH WIND       PRES   REMARKS
HONOLULU       PTCLDY    69  58  67 NW3       29.95R
KALAELOA       CLEAR     68  56  65 VRB3      29.96R
KANEOHE MCB    CLOUDY    72  60  66 NE10      29.96S
WHEELER FIELD  FAIR      62  56  79 NW5       29.96S
BELLOWS*         N/A    N/A N/A N/A NE10        N/A
KAHUKU*          N/A    N/A N/A N/A NE5G10      N/A
WHEELER*       NOT AVBL
WAIANAE HARBOR NOT AVBL
DILLINGHAM*      N/A     66  57  72 SE3         N/A
KAHUKU TRN*      N/A     66  55  68 E6G14       N/A
KAWAILOA*        N/A     63  55  77 E3G12       N/A
KII*             N/A     72  57  60 E10         N/A
MAKUA RANGE*     N/A     70  57  64 E10G21      N/A
OAHU FOREST NW NOT AVBL
SCHOFIELD BRK*   N/A     59  54  82 MISG        N/A
SCHOFIELD S*   NOT AVBL
WAIANAE VLY*   NOT AVBL
KUAOKALA*      NOT AVBL
HONOULIUULI*   NOT AVBL
MOKUOLOE IS*     N/A    N/A N/A N/A MISG        N/A
PALEHUA*       NOT AVBL
WAIAWA PHB*    NOT AVBL
$$

HIZ012>013-290800-
MOLOKAI-

CITY           SKY/WX    TMP DP  RH WIND       PRES   REMARKS
MOLOKAI AIRPT  CLEAR     68  57  68 N7        29.96R
KALAUPAPA      NOT AVBL
MAKAPULAPAI*   NOT AVBL
MOLOKAI 1*     NOT AVBL
PUU ALII*        N/A     51  51 100 E2G8        N/A
$$

HIZ016-290800-
KAHOOLAWE-

CITY           SKY/WX    TMP DP  RH WIND       PRES   REMARKS
KAHOOLAWE*     NOT AVBL
HAKIOAWA*        N/A     66  59  79 MISG      30.38R
HONOKANAIA*      N/A     71  59  66 N9G20     29.96R
KANELOA*         N/A     70  59  68 NE13G32   29.15S
KEALIALALO*    NOT AVBL
LUA MAKIKA*    NOT AVBL
$$

HIZ014>015-290800-
LANAI-

CITY           SKY/WX    TMP DP  RH WIND       PRES   REMARKS
LANAI CITY     FAIR      64  56  75 NE14G21   29.99R
LANAI 1*       NOT AVBL
$$

HIZ017>028-290800-
MAUI-

CITY           SKY/WX    TMP DP  RH WIND       PRES   REMARKS
KAHULUI        MOCLDY    72  57  59 N13       29.96R
KAPALUA-W MAUI NOT AVBL
HANA AIRPORT   CLOUDY    66  57  72 CALM      30.00S
HANA*            N/A     72 N/A N/A N5          N/A
HALEAKALA SUMM   N/A     50  19  29 N10         N/A
MAALAEA BAY*   NOT AVBL
HALEAKALA*     NOT AVBL
KAUPO GAP*     NOT AVBL
KULA 1*          N/A     57   1  10 E7          N/A
$$

HIZ023>026-290800-
BIG ISLAND OF HAWAII COAST AND LOWER SLOPES-

CITY           SKY/WX    TMP DP  RH WIND       PRES   REMARKS
KAILUA KONA    CLEAR     72  59  63 E7        29.90R
HILO           MOCLDY    68  57  68 W8        29.96R
HONOKAA*       NOT AVBL
KAWAIHAE MWT*    N/A     72 N/A N/A E6          N/A
KAWAIHAE*        N/A     72 N/A N/A NE1         N/A
SOUTH POINT*     N/A     66 N/A N/A W6          N/A
UPOLU AIRPORT*   N/A    N/A N/A N/A NE20G25     N/A
KAMUELA*       SUNNY     55  54  94 NE16      30.01S
HAKALAU*         N/A    N/A N/A N/A W3          N/A
KALOKO-HONOKO*   N/A     70  59  68 NE3       29.89S
PALI 2*          N/A     59  55  88 E3          N/A
KEALAKOMO*       N/A     63  46  55 NW12G26     N/A
KAUPULEHU*     NOT AVBL
KAPAPALA*        N/A     58  56  94 CALM        N/A
LOWER KAHUKU*    N/A     55  54  94 N3          N/A
PUHE CS*       NOT AVBL
PUHO CS*         N/A     71  58  63 E3          N/A
PTA KEAMUKU*     N/A    N/A N/A N/A CALM        N/A
WAIKOLOA*      NOT AVBL
$$

HIZ027>028-290800-
BIG ISLAND OF HAWAII INTERIOR AND SUMMMITS-

CITY           SKY/WX    TMP DP  RH WIND       PRES   REMARKS
BRADSHAW FIELD PTCLDY    48  17  28 SE5       30.24R
MK VISITOR CEN   N/A      0   0 100 MISG        N/A
MAUNA KEA*       N/A     36   7  30 VRB18       N/A  WCI  25
MAUNA LOA*       N/A     45   9  23 MISG        N/A
MAUNA LOA 1*   NOT AVBL
PTA KIPUKA*      N/A    N/A N/A N/A E3          N/A
PTA RANGE 17*    N/A     54  39  58 SE3         N/A
PTA WEST*        N/A     50  39  66 SE12        N/A
NENE CABIN*      N/A    N/A N/A N/A N6          N/A
AHUMOA*        NOT AVBL
PTA PORTABLE*  NOT AVBL
PUU MALI*      NOT AVBL
$$

HIC003-290800-
NORTHWEST ISLANDS-

CITY           SKY/WX    TMP DP  RH WIND       PRES   REMARKS
MIDWAY ISLAND  MOCLDY    64  57  77 N13G18    30.08R
MIDWAY NOS*    NOT AVBL
FRENCH FRIGATE NOT AVBL
$$

PHZ110>124-180-290800-
BUOY REPORTS

STATION/POSITION TIME  TEMP    WIND        PRES    WAVE   SWELL
                       AIR SEA DIR/SP/G            HT/PER HT/DIR
                 (UTC) (F)     (DEG/KT/KT) (MB)    (FT/S) (FT/D)
BUOY 51001       NOT AVBL
BUOY 51101       0700   69 76  330/  2/  6 1015.9R  10/11  10/360
BUOY 51100       0600   70 75   20/  8/ 12 1014.3R
BUOY 51003       0700   74 78   40/ 12/ 16 1013.7R   7/11   7
BUOY 51004       0604   75 78   30/ 14/ 19 1012.7R   8/14
BARBERS PT BUOY  NOT AVBL
WAIMEA BAY BUOY  0700      76                N/A     9/11   7/350
KAILUA BAY BUOY  0700      76                N/A     8/12   5/350
LANAI BUOY       0700      77                N/A     3/13   2/290
BARBERS PT 2     0700      77                N/A     4/12   3/290
PAUWELA MAUI     0700      76                N/A    10/13   7/340
HILO             0700      77                N/A     8/11   7/350
KANEOHE BAY BUOY 0700      76                N/A     8/12   5/360
HANALEI KAUAI    NOT AVBL
KAHULUI HARBOR   0700   72 76   10/ 10/ 19 1014.5R
HONOLULU HARBOR  0700   72      40/  7/ 10 1014.5R
KILO NALU        NOT AVBL
HILO HARBOR      0700   69     280/ 10/ 11 1014.2R
MOKUOLOE         0700   73 74   40/  9/ 11 1014.9S
NAWILIWILI       0700      77                N/A
WHOTS BUOY       NOT AVBL
BUOY 51028       NOT AVBL
$$

......................KEY........................................
  SKY/WX - SKY CONDITIONS/PRESENT WEATHER
  TMP    - TEMPERATURE IN FAHRENHEIT
  DWPT   - DEWPOINT IN FAHRENHEIT
  RH     - RELATIVE HUMIDITY IN PERCENT
  WIND   - DIRECTION AND SPEED /MPH FOR ISLANDS...KTS FOR BUOYS/
  PRES   - MEAN SEA LEVEL PRESSURE IN INCHES OF HG
  VSB    - VISIBILITY IN MILES
  HX     - HEAT INDEX
  WCI    - WIND CHILL INDEX
  VRB    - VARIABLE WIND DIRECTION
  N/A    - NOT AVAILABLE


USA.gov is the U.S. government's official web portal to all federal, state and local government web resources and services.